Location: Newark
(45.4422°N, 16.2769°E)
Time: 01:02:02
(UTC+00:00)

Tiros 1 despin weight - Pass Details

Date: 19 December 2019
Orbit: 593 x 643 km, 48.2° (Epoch: 20 January)

Event Time Altitude Azimuth Distance (km) Brightness Sun altitude
Rises 03:56:16 0° 281° (W) 2,897 - -25.9°
Reaches altitude 10° 03:58:37 10° 285° (WNW) 1,982 - -25.5°
Maximum altitude 04:03:08 63° 6° (N) 684 - -24.7°
Exits shadow 04:03:21 62° 23° (NNE) 689 ? -24.7°
Drops below altitude 10° 04:07:35 10° 89° (E) 1,950 ? -24.0°
Sets 04:09:53 0° 92° (E) 2,845 ? -23.6°
